Location: Mwenda
(0.4118°N, 29.7695°E)
Time: 07:23:57
(UTC+00:00)

Daily predictions for brighter satellites

Satellite Brightness Start Highest point End
(mag) Time Altitude Azimuth Time Altitude Azimuth Time Altitude Azimuth
USA 267 3.9 16:22:31 10° NNE 16:28:59 64° NW 16:35:27 10° SW
Okean-O 3.2 16:25:38 10° SE 16:29:43 36° ENE 16:33:46 10° N
GPS 2-15 Rocket1 3.8 16:27:24 10° SW 16:31:43 38° SSE 16:36:03 10° E
Cosmos 332 Rocket 3.8 16:32:50 10° N 16:37:41 77° ENE 16:42:35 10° SSE
Longmarch 3A Rocket 1.1 16:39:47 10° WSW 16:42:41 54° NNW 16:44:21 10° NE
Cosmos 2151 4.5 16:41:08 10° SSW 16:45:07 40° W 16:49:03 10° NNW
CZ-4 R/B 1.4 16:45:49 10° SSE 16:49:33 50° ENE 16:53:17 10° N
Meteor 2-3 Rocket 3.7 16:45:57 10° S 16:51:39 71° E 16:57:24 10° N
MOS 1 Rocket 3.6 16:48:27 10° NNE 16:53:36 57° E 16:58:29 10° S
Cosmos 1452 Rocket 3.6 16:49:29 10° NNW 16:54:43 83° WSW 16:59:59 10° S
Cosmos 2218 Rocket 4.3 16:49:29 10° SSE 16:55:23 43° E 17:01:11 10° NNE
RESURS DK-1 4.2 16:55:32 10° NW 16:59:12 31° WSW 17:02:54 10° S
Cosmos 2369 Rocket 2.2 16:55:50 10° NNW 17:01:30 86° ENE 17:07:14 10° SSE
Cosmos 2263 4.3 16:57:56 10° N 17:03:35 58° ENE 17:09:11 10° SSE
H-2A R/B 3.1 17:01:43 17° ESE 17:04:31 26° ENE 17:08:48 10° NNE
Ariane H10 1.3 17:03:23 10° WSW 17:04:14 22° SW 17:04:14 22° SW
CSL-04 Debris 4.4 17:03:26 10° SSE 17:08:44 50° ENE 17:14:00 10° N
IUS-17 SRM-1 4.3 17:03:37 10° WNW 17:10:42 33° SW 17:12:39 16° SSE
Nadezhda 3 Rocket 3.9 17:05:22 10° N 17:11:27 70° E 17:17:34 10° S
Meteor 2-12 Rocket 4.4 17:06:06 10° S 17:12:16 79° E 17:18:24 10° N
ATLAS 5 CENTAUR R/B 0.7 17:12:27 10° SW 17:14:48 55° SSE 17:17:03 26° E
CZ-2C R/B 2.7 17:10:03 10° NNE 17:15:07 52° ESE 17:20:19 10° S
Cosmos 864 Rocket 4.5 17:09:07 10° S 17:15:21 63° E 17:21:34 10° NNE
Ariane H10+ 2.3 17:15:02 10° WNW 17:16:32 27° NNW 17:16:32 27° NNW
Cosmos 1328 Rocket 4.5 17:17:26 10° NNE 17:20:44 29° ENE 17:20:44 29° ENE
Cosmos 1833 Rocket 2.6 17:15:57 10° S 17:21:29 62° ESE 17:26:59 10° NNE
Cosmos 1656 Rocket 3.7 17:16:51 10° N 17:22:20 60° ENE 17:25:38 24° SSE
Cosmos 1959 Rocket 4.5 17:22:21 10° S 17:28:35 87° W 17:34:52 10° N
Cosmos 1867 3.5 17:24:40 10° S 17:29:56 55° ESE 17:35:12 10° NE
CZ-4C R/B 4.1 17:22:16 10° NW 17:30:19 47° WSW 17:38:12 10° S
Cosmos 1933 4.0 17:27:33 10° NNE 17:30:36 38° NE 17:30:36 38° NE
Cosmos 1943 Rocket 4.4 17:29:19 10° NW 17:33:36 23° WSW 17:37:54 10° SSW
DMSP B5D2-2 4.0 17:32:25 10° NNE 17:37:40 89° W 17:42:56 10° SSW
NOSS 3-2 (A) 3.0 17:36:52 10° SSW 17:42:12 57° ESE 17:43:07 50° ENE
BLOCK DM-SL R/B 3.4 17:38:49 10° W 17:43:32 88° S 17:54:42 29° E
BLOCK DM-SL R/B 3.4 17:38:49 10° W 17:43:32 88° S 17:54:41 29° E
BLOCK DM-SL R/B 3.4 17:38:48 10° W 17:43:33 88° S 17:54:43 29° E
BLOCK DM-SL R/B 3.4 17:38:49 10° W 17:43:33 88° S 17:54:43 29° E
BLOCK DM-SL R/B 3.4 17:38:49 10° W 17:43:33 88° S 17:54:44 29° E
YAOGAN 1 4.4 17:41:32 10° SSW 17:45:17 29° WSW 17:49:03 10° NW
Cosmos 1606 3.0 17:42:04 10° NNW 17:45:47 61° W 17:46:14 56° SW
Cosmos 614 Rocket 4.3 17:44:00 10° SSW 17:49:01 64° WNW 17:54:04 10° N
Ariane H10-3 3.8 17:50:07 10° NW 17:50:38 15° NW 17:50:38 15° NW
Cosmos 1151 Rocket 3.6 17:58:10 10° NNW 18:01:48 53° WNW 18:01:48 53° WNW
ARIANE 44L R/B 3.7 17:53:16 10° W 18:04:46 44° SSW 18:04:46 44° SSW
Meteor 1-26 Rocket 4.5 18:02:58 10° N 18:07:08 55° N 18:07:08 55° N
CZ-2C R/B 4.4 18:09:09 20° SSW 18:12:06 36° WSW 18:16:38 10° NW
Cosmos 2082 Rocket 2.3 18:08:38 10° SSW 18:14:19 71° WNW 18:19:58 10° N
GPS 2-15 Rocket1 4.4 18:11:19 10° WSW 18:14:18 37° W 18:14:18 37° W
ARGOS 4.1 18:29:23 43° W 18:29:23 43° W 18:34:09 10° NNW
USA 238 4.5 18:31:13 10° SW 18:37:23 44° WNW 18:43:34 10° N
H-2A R/B 4.3 18:42:20 19° WSW 18:43:37 20° WSW 18:47:25 10° WNW
H-2A ROCKET BODY 4.0 19:04:16 10° WNW 19:57:52 10° ESE 19:58:56 10° ESE
ARIANE 5 R/B 4.3 18:55:06 10° W 19:33:59 57° WNW 19:33:59 57° WNW
